DELTA 1 DEB, 8542

Orbit data source: Space-Track

DELTA 1 DEB, 8542 is space debris in SSO originally from a launch on Sun, 23 Jul 1972 UTC launched from the Air Force Western Test Range (AFWTR). Debris objects in space refer to the collection of defunct objects orbiting the Earth. Examples of debris include non-operational satellites, rocket bodies, and fragments generated from explosions, collisions, or faulty payload assembly.

Loading next visibility...
Identifier
8542, 1972-058GR
Orbit
SSO
Country
Flag of USUS
Related business
Manufacturer
Unknown
Mission
Spacecraft
Bus & Motor
Unknown
Mass
Unknown
Launch date (UTC)
1972-07-23 (54 years ago)
Launch vehicle
Unknown
Launch site
Air Force Western Test Range (AFWTR)
Object type
Payload
Rocket body
Debris
Shape & HBR
Unknown shape, 0.2 m
Radar Cross Section
Medium (>0.1 m² and <1 m²)

Expand to show TLE details & history
Last TLE update: 4 days ago

TLE from 4 days ago
0 DELTA 1 DEB
1 08542U 72058GR  26146.42219388  .00000232  00000-0  14219-3 0  9994
2 08542  97.9601  29.2307 0350386 200.8494 157.8074 13.86619370703295
Epoch: 2026-05-26T10:07Z
TLE epoch observation values (Epoch: 2026-05-26T10:07:57.551Z)
Latitude
0.00005°
Longitude
-6.75496°
Altitude
1,182.102 km
Speed
7.143 km/s
True Right ascension
01h 56m 55s
True Declination
0° 00' 00"
Sunlit
Object was in daylight at epoch
Visualization orbit readout
Latitude
Unknown
Longitude
Unknown
Altitude
Unknown
Speed
Unknown
Apparent Right ascension
Unknown
Apparent Declination
Unknown
Sunlit
N/A
Visualization observer readout
Local Sidereal Time
00:56:43
Azimuth
Unknown
Elevation
Unknown
Doppler factor
Unknown
Orbital elements
Apogee altitude
1,194.002 km
Perigee altitude
681.331 km
Semi-major axis
7,315.803 km
Eccentricity
0.03504
Inclination
97.9601°
RAAN
29.2307°
Arg. of periapsis
200.8494°
True anomaly
159.26465°
Mean anomaly
157.8074°
Eccentric anomaly
158.54181°
Mean motion
3.46857 °/min
Orbital period
103.79 mins
BSTAR
0.00014219
Loading maneuver chart data...
Computing Atmospheric mass density...
Loading historical data...
Loading historical data...
Loading historical data...
Loading historical data...
Loading historical data...
Loading historical data...
Loading historical data...

Documentation

Showing up to 5 results
|